[ hide orbit diagram ]
For accurate long-term ephemerides, please instead use our Horizons system.This orbit viewer was implemented using two-body methods, and hence should not be used for determining accurate long-term trajectories (over several years or decades) or planetary encounter circumstances.
Orbital Elements at Epoch 2459000.5 (2020-May-31.0) TDB
Reference: JPL 40 (heliocentric ecliptic J2000)
Element | Value | Uncertainty (1-sigma) | Units |
e | .1609551823440654 | 3.3121e-08 | |
a | 2.786611926043269 | 1.1033e-08 | au |
q | 2.338092295364827 | 9.132e-08 | au |
i | 7.751600015815267 | 3.5432e-06 | deg |
node | 137.8103299510208 | 2.7903e-05 | deg |
peri | 98.4536635387454 | 3.0008e-05 | deg |
M | 168.3451070337279 | 1.2637e-05 | deg |
tp | 2458205.968424149796 (2018-Mar-28.46842415) | 5.7908e-05 | TDB |
period | 1699.077403234339 4.65 | 1.009e-05 2.762e-08 | d yr |
n | .2118796938354363 | 1.2583e-09 | deg/d |
Q | 3.23513155672171 | 1.2808e-08 | au |
|
| | Orbit Determination Parameters
Additional Information
|
[ hide covariance matrix ]
Orbital Elements at Epoch 2456755.5 (2014-Apr-08.0) TDB
Reference: JPL 40 (heliocentric ecliptic J2000)
Element | Value | Uncertainty (1-sigma) | Units |
e | .1608542737041324 | 3.3019e-08 | |
q | 2.338968111537126 | 9.1045e-08 | au |
tp | 2456509.033688943315 (2013-Aug-04.53368894) | 5.5756e-05 | TDB |
node | 137.8681400306977 | 2.7893e-05 | deg |
peri | 98.82936138659672 | 3.0017e-05 | deg |
i | 7.752428177290829 | 3.5441e-06 | deg |
|
| | Orbit Determination Parameters
Additional Information
|
Orbit Covariance (6×6)
|
|
e |
q |
tp |
node |
peri |
i |
e |
1.09025247971258E-15 |
-2.990864204470287E-15 |
-2.234562891292795E-13 |
-4.340819611734363E-15 |
-4.828473426485136E-14 |
-7.546635285385078E-17 |
q |
-2.990864204470287E-15 |
8.289282304111636E-15 |
6.994803098292759E-13 |
1.107880685722346E-14 |
1.523864439215027E-13 |
5.49054390539426E-16 |
tp |
-2.234562891292795E-13 |
6.994803098292759E-13 |
3.108704979559263E-9 |
5.805580708248496E-12 |
6.372680349590396E-10 |
-3.196934683452518E-13 |
node |
-4.340819611734363E-15 |
1.107880685722346E-14 |
5.805580708248496E-12 |
7.780030222780977E-10 |
-7.694786808613467E-10 |
1.323724616776172E-11 |
peri |
-4.828473426485136E-14 |
1.523864439215027E-13 |
6.372680349590396E-10 |
-7.694786808613467E-10 |
9.010396562891911E-10 |
-1.315584980613513E-11 |
i |
-7.546635285385078E-17 |
5.49054390539426E-16 |
-3.196934683452518E-13 |
1.323724616776172E-11 |
-1.315584980613513E-11 |
1.25606204680766E-11 |
|
Physical Parameter Table
Parameter |
Symbol |
Value |
Units |
Sigma |
Reference |
Notes |
absolute magnitude |
H |
12.4 |
|
n/a |
PDS3 (MPC 28112) |
|
diameter |
diameter |
9.972 |
km |
0.392 |
urn:nasa:pds:neowise_diameters_albedos::2.0[mainbelt] (http://adsabs.harvard.edu/abs/2011ApJ...741...68M) |
|
rotation period |
rot_per |
10.211 |
h |
n/a |
LCDB (Rev. 2020-October); Warner et al., 2009 |
Result based on less than full coverage, so that the period may be wrong by 30 percent or so. Published Reference List: [Clark, M. (2015) Minor Planet Bull. 42, 163-166.] |
geometric albedo |
albedo |
0.195 |
|
0.022 |
urn:nasa:pds:neowise_diameters_albedos::2.0[mainbelt] (http://adsabs.harvard.edu/abs/2011ApJ...741...68M) |
|
|
4535 Adamcarolla | Discovered 1986 Aug. 28 by H. Debehogne at the European Southern Observatory. |
Adam Carolla (b. 1964) co-hosted Loveline, a syndicated radio program that has dispensed medical and relationship advice to millions of listeners for over 20 years. Adam is a comedian who has also hosted numerous television programs and currently has his own morning radio show. The name was suggested by T. Burbine. |
NOTE: some special characters may not display properly (any characters within {} are an attempt to place the proper accent above a character) |
Reference: 20060413/MPCPages.arc | Last Updated: 2006-04-17 |
|
[ show close-approach data ]
Alternate Designations
1986 QV2 = 1957 JB = 1966 CK = 1980 DJ4 |
|
|